cliquez pour ajouter le site Runraid à vos favoris  English version (google)  Retour à l'accueil Ecrire à l'auteur du site Runraid : Michel Jourdan



Les prochaines courses


Les derniers résultats

cliquez pour visualiser la page complète relatant la chronologie des éruptions du Piton de la Fournaise
éruptions Piton de la Fournaise


Ile de La Réunion

 Diagonale des Fous 

Ecrire au créateur du site : Michel Jourdan
Contact


2013-09-22 - Trail Alesia 51 Km

Pour consulter le palmarès d'un coureur, un clic sur son nom !

Vous avez des remarques, corrections, ... sur ces résultats , un clic sur --> pour me transmettre toute information concernant les classements


Trail Alesia 51 Km - 2013 : classement des 156 finishers
Place Nom Temps Cat. Club Sexe Clt/cat.
Place Nom Temps Cat. Club Sexe Clt/cat.
1 DAVID EMMANUEL 04:07:32 SEM Dijon UC M 131
2 FOURRIER JULIEN 04:28:09 SEM CA BAR/AUBE BAYEL M 80
3 HEURTEFEU LAURENT 04:31:31 SEM Dijon UC M 130
4 ASSADI HERVE 04:34:32 V1H Dijon UC M 1er V1H 188
5 HAUSMANN VINCENT 04:36:55 SEM - M 162
6 FATTON CHRISTIAN 04:53:35 V2H CCAP New Balance M 1er V2H 70
7 MANGIN SYLVAIN 04:53:53 V1H - M 167
8 CAILLIEZ MATHIEU 04:57:47 SEM - M 81
9 TISSERANT MARC 05:00:01 V1H AJVN M 128
10 PASQUIER FREDERIC 05:02:28 V1H G?n?ration Trail Blois M 174
11 MANGEON JEAN PIERRE 05:04:19 V2H sens route M 54
12 MARTIN BRAUD GUILHEM 05:04:50 ESH - M 169
13 DOUHERET ERIC 05:07:56 V1H - M 120
14 LE JEUNE SYLVAIN 05:08:13 SEM - M 74
15 VELUT ALEXANDRE 05:08:52 SEM TROYES TRIATHLON M 82
16 FATTON JULIA 05:17:36 V1F TV Rheinau 1893 F 1ere F 69
17 AUSTRUI ANNE SOPHIE 05:21:09 SEF AJA Marathon F 2eme F 117
18 LIANDIER JULIEN 05:21:45 SEM - M 31
19 MORT GUILLAUME 05:22:23 SEM BA 102 Dijon M 172
20 BEGIN REYNALD 05:23:19 V1H kikourou team raidlight M 146
21 DOUET JEROME 05:24:32 V1H CS Courtry M 13
22 GONZALEZ HUGUES 05:24:33 SEM - M 29
23 EYRAUD CEDRIC 05:25:49 V1H - M 106
24 AUSTRUI RICHARD 05:31:44 V1H AJA Marathon M 118
25 COMELLI MICHAEL 05:34:55 SEM - M 111
26 CLAIRET FRANCOIS 05:35:30 V2H - M 12
27 VITEAU SEBASTIEN 05:36:12 SEM semur athletisme aventure M 187
28 QUELLIEN ARNAUD 05:36:12 SEM TEAM 21 M 176
29 CLET PIERRE YVES 05:37:19 SEM - M 96
30 DA COSTA SEBASTIEN 05:40:23 SEM - M 73
31 REMOND SYLVAIN 05:40:39 SEM - M 177
32 MOIROUD XAVIER 05:41:05 SEM - M 3
33 MITTAINE FREDERIC 05:41:24 V1H - M 170
34 FOULON THIBAULT 05:41:36 SEM US JOIGNY M 30
35 MOURELON CHRISTOPHE 05:42:10 SEM - M 173
36 MORIER BRUNO 05:43:03 V2H - M 171
37 FERDJANI SAMI 05:43:05 V1H - M 110
38 BAJARD ALBAN 05:44:09 SEM - M 145
39 GALLAY CLAUDE 05:44:17 V1H sapeurs pompiers de Nuits M 78
40 ORMANCEY REGIS 05:45:07 V1H - M 32
41 GOUSSE CHRISTIAN 05:46:26 V2H - M 9
42 BORGES ANTONIO 05:46:37 V1H Dijon Triathlon M 93
43 DUBARD VINCENT 05:49:37 SEM - M 125
44 VUILLET NICOLAS 05:49:44 V1H - M 101
45 BENADDI FLORENT 05:50:04 SEM - M 148
46 PERRET GILLES 05:50:15 V2H courstoutdoubs M 175
47 GARNIER RODOLPHE 05:50:43 V2H - M 76
48 VIGIER ALAN 05:51:20 SEM Alan Vigier M 90
49 SALIN CLAUDINE 05:51:20 V1F - F 3eme F 178
50 VALLEE FABIEN 05:52:05 SEM - M 184
51 ROBERJOT STEPHAN 05:53:47 V1H asf uso nevers M 92
52 PHILBE GERMAIN 05:54:28 V1H AJA Marathon M 124
53 GASPERI REGIS 05:55:27 V2H ACBB triathlon M 109
54 GAUTHEY ALAIN 05:58:52 V1H Triathlon Autun M 88
55 GUILLAUME OLIVIER 05:58:52 V1H - M 71
56 MIGNARDOT ERIC 05:59:37 V1H nuits course ? pied M 102
57 AUBERT NICOLAS 06:00:32 V1H stade athletique autun M 62
58 VERSLYPE JOHN 06:01:14 SEM - M 186
59 THARION MATHIEU 06:01:14 SEM ACR DIJON M 59
60 FERREIRA JULIEN 06:01:14 SEM - M 83
61 TARNIER ALEXANDRE 06:03:35 SEM AC TALANT M 139
62 DA SILVA MANUEL 06:04:07 V1H - M 75
63 GACHOWSKI KAMIL 06:04:30 SEM - M 38
64 DUBIEF DAVID 06:05:08 V1H - M 114
65 KLEIN FRANCOIS 06:05:52 V2H - M 163
66 KLEIN THEO 06:05:52 SEM - M 164
67 GRILLOT NICOLAS 06:06:14 SEM - M 160
68 VILLAIN ERIC 06:06:46 V1H COUREURS SUR ROUTE COTE D M 98
69 DISSES WARREN 06:07:16 SEM - M 95
70 DA SILVA ALFRED 06:07:24 V1H - M 157
71 BRINGUIER HENRI 06:08:32 V1H - M 154
72 BRESSON THIERRY 06:09:28 V2H - M 152
73 DELETTRE FABRICE 06:10:59 V1H - M 2
74 NOBEL REMY 06:12:29 V1H - M 113
75 SAUVAGE THOMAS 06:12:54 SEM Thomas Sauvage M 180
76 MARTIN THIERRY 06:18:54 V1H MORVAN OXYGENE M 168
77 GOSSET SYLVAIN 06:18:55 SEM Morvan oxyg?ne M 158
78 SARTORELLI PASCAL 06:19:21 V1H - M 143
79 DODIN CHRISTOPHE 06:19:24 SEM - M 100
80 MARGAROLI ERIC 06:19:48 V2H Dijon UC M 190
81 GAUTHEY MICHEL 06:21:00 V2H Dijon Triathlon M 16
82 JACROT YANNICK 06:22:41 V1H - M 140
83 ANGOT STEPHANE 06:22:42 V1H - M 141
84 DINET GILLES 06:23:58 V2H - M 86
85 STEINBERG CHRISTIAN 06:24:43 V2H Dijon Triathlon M 89
86 CHAVERIAT MARC 06:24:43 V2H Dijon Triathlon M 97
87 DAVID LAURENT 06:24:43 V1H Dijon Triathlon M 87
88 GROSJEAN YANNICK 06:27:43 V1H - M 91
89 VALETTE ERIC 06:27:44 SEM USO de CHELLES M 10
90 PONTOUT LAURENT 06:27:55 V2H - M 58
91 ROUX BENJAMIN 06:28:06 SEM Dijon Triathlon M 115
92 BLANCHET CHRISTOPHE 06:28:07 V1H Dijon Triathlon M 126
93 ROUSSEL DOMINIQUE 06:28:43 V2H AC TALANT M 144
94 VERMENOT JEAN LUC 06:28:45 V1H - M 185
95 AUGUE GEORGES 06:28:48 V1H - M 119
96 LECOUR ERIC 06:29:33 V1H - M 94
97 COTTIN MICHEL 06:29:43 V1H - M 45
98 MANLAY THIERRY 06:30:52 V1H - M 52
99 HAILLOT SANSON VERONIQUE 06:32:08 V1F - F 161
100 KLCOVANSKY JAKOB 06:36:41 SEM The Queen?s Athletic Club M 11
101 BOUCHARD ERIC 06:36:41 V2H COUREURS SUR ROUTE COTE D M 151
102 KEGEL JAKOB 06:36:41 SEM QAC M 41
103 GALLOIS FRANCOIS 06:36:52 V2H Red star club champigny M 137
104 ANDRE ALEXIS 06:38:17 SEM - M 51
105 JUIF JOHANN 06:40:09 V1H - M 65
106 LECLERC LAURENT 06:41:47 V1H - M 166
107 CHARDIGNY JEAN CHRISTOPHE 06:43:25 V1H ECA M 156
108 ROCHE ALAIN 06:43:36 V1H sapeurs pompiers de Nuits M 77
109 LELOUP GAETAN 06:43:59 V1H CARQUEFOU AC M 24
110 FICHOT MICHEL 06:48:31 V1H - M 44
111 BONDOUX LUDOVIC 06:50:12 V1H - M 132
112 BRUNEAU ERIC 06:54:33 V2H - M 155
113 LEBLAY DAMIEN 06:57:10 SEM - M 84
114 RAVEL FLORENCE 06:57:29 SEF - F 138
115 FOUCHER SYLVAIN 06:58:45 SEM - M 33
116 HUET STEPHANE 07:00:08 V1H - M 79
117 SEDAN MICKAEL 07:00:15 SEM - M 182
118 BOULANT OLIVIER 07:00:28 V1H - M 129
119 EPINEAU CHRISTOPHE 07:00:59 SEM - M 72
120 BARBIER PATRICE 07:01:05 V1H - M 43
121 BERTHIER PASCAL 07:06:08 V2H - M 136
122 CARAUX LAURENT 07:06:27 V1H NATIXIS M 18
123 BOTTAZZO ARNAUD 07:06:49 SEM - M 37
124 HUART MATTHIEU 07:07:42 SEM - M 34
125 FONTELLINI DIDIER 07:08:22 V1H CAZENOVE M 36
126 DYMARSKI EVELYNE 07:09:16 V2F - F 6
127 RIONDET NICOLAS 07:09:33 V1H - M 39
128 HAEMMERLE BERTRAND 07:10:42 V1H - M 1
129 CORNEMILLOT ALINE 07:11:10 V1F Dijon Triathlon F 108
130 DE VILLEMEREUIL LIONEL 07:11:18 V3H ASPTT DIJON ATHLETISME M 42
131 HAUVESPRE SEBASTIEN 07:12:36 SEM LES MOUSTIQUES M 99
132 FANTOU MICHEL 07:12:36 V2H AJ AUXERRE SECTION MARATH M 105
133 SERRI EMMANUEL 07:12:37 V1H - M 183
134 BADRANI SATIHA 07:13:10 V1F - F 191
135 MEURGEY YVES 07:18:43 V4H - M 1er V4H 22
136 RULEWSKI JORMA 07:19:56 SEM - M 142
137 LAVESVRE YANNICK 07:21:18 SEM - M 68
138 SAUNIER LUC 07:21:21 V2H - M 179
139 DUFOUR DAMIEN 07:21:24 SEM - M 21
140 MAMINE SUZIE 07:22:37 SEF MPT ISTRES F 27
141 GUILLAMO FRANCK 07:22:37 SEM Lyondell Sports Loisirs M 26
142 NORDERA LAURENCE 07:22:37 V1F MPT ISTRES F 25
143 MATHIAUD XAVIER 07:23:40 V1H TEAM Raidlight M 67
144 LALLEMAND ISABELLE 07:24:12 V1F - F 165
145 CINI STEPHANE 07:24:14 V1H - M 63
146 DOUVIER SERGE 07:24:24 V2H - M 48
147 FEUVRIER ERIC 07:27:21 V1H - M 7
148 GAUDILLIERE NOEL 07:28:53 V1H - M 28
149 JASPIERRE ANTHONY 07:32:10 SEM - M 40
150 AYMARD STEPHANE 07:32:31 V1H - M 23
151 BERGEROT EMMANUELLE 07:37:00 V1F Dijon Triathlon F 104
152 TOURNEUX FRANCOIS 07:46:13 V1H CS Courtry M 14
153 GRECO NATHALIE 07:46:31 V1F Dijon Triathlon F 159
154 PAYEN DOMINIQUE 07:50:29 V2H - M 61
155 LEVIER ALEXANDRE 07:51:02 V1H accrorun villepreux M 127
156 BERTRAND MARYLINE 08:03:22 V1F - F 149


ReferencementCe site est listé dans la catégorie Sport : Sports extrêmes Dictionnaire
| Accueil | La Réunion  Vue du ciel | Météo | Cyclones | Volcan | Cirques de Mafate , Cilaos , Salazie | Photos Randonnées | Randonnées Réunion: Randos Espiègle , Courses montagne | Diagonale des Fous |  Marathon des Sables | Voyages Les stats du site | Fonds écran | Plan du site | Blog de runraid | Galerie photos Sport Réunion |